Volver al catálogo

CZ-6A DEB

ActivoPO
NORAD 64638·DEBRIS·🇨🇳 China

Lanzado Aug 6, 2024 desde Taiyuan Satellite Launch Center

Loading…

Próximos Pases (próximas 24 horas)

TLE

ActualizadoSource: Space-Track

Época: Sep 13, 2026, 10:05 UTC

1 64638U 24140AEC 26256.42053892  .00004547  00000-0  12158-2 0  9991
2 64638  88.8592 248.7497 0050042  58.1530 302.4532 14.47433188104684

Sigue CZ-6A DEB en tiempo real con AllMySat

Download on the App Store